Retour au catalogue

SCOUT A DEB

ActifPO
NORAD 2580·DEBRIS·🇺🇸 United States

Lancé Aug 18, 1966 depuis Vandenberg Space Force Base

Loading…

Prochains Passages (prochaines 24 heures)

TLE

FraisSource: Space-Track

Époque: Sep 13, 2026, 00:53 UTC

1 02580U 66076C   26256.03735565  .00000162  00000-0  14148-3 0  9995
2 02580  89.1295 278.5292 0096129  59.2660 331.0595 13.78768651  3990

Suivez SCOUT A DEB en temps réel avec AllMySat

Download on the App Store